カタログに戻る

CONNECTA IOT-1

運用中通信SSO
NORAD 60472·PAYLOAD·🇹🇷 Turkey

打ち上げ Aug 16, 2024 から Vandenberg Space Force Base

Loading…

次のパス (今後24時間)

TLE

最新Source: Space-Track

元期: Sep 14, 2026, 11:11 UTC

1 60472U 24149E   26257.46597867  .00006267  00000-0  25979-3 0  9999
2 60472  97.3691 332.2542 0001532  14.9066 345.2216 15.24238222115397

AllMySatでCONNECTA IOT-1をリアルタイム追跡

Download on the App Store